TimeCDT,TemperatureF,Dew PointF,Humidity,Sea Level PressureIn,VisibilityMPH,Wind Direction,Wind SpeedMPH,Gust SpeedMPH,PrecipitationIn,Events,Conditions,WindDirDegrees,DateUTC
12:14 AM,41.0,30.4,66,30.15,10.0,West,13.8,24.2,N/A,,Overcast,270,2012-10-05 05:14:00
12:34 AM,40.6,30.2,66,30.15,10.0,West,17.3,24.2,N/A,,Overcast,280,2012-10-05 05:34:00
12:54 AM,40.5,29.5,65,30.15,10.0,West,21.9,28.8,N/A,,Overcast,270,2012-10-05 05:54:00
1:14 AM,40.3,28.2,62,30.15,10.0,West,20.7,29.9,N/A,,Overcast,280,2012-10-05 06:14:00
1:34 AM,40.3,28.4,63,30.15,10.0,West,17.3,25.3,N/A,,Overcast,280,2012-10-05 06:34:00
1:54 AM,40.1,29.1,65,30.16,10.0,WNW,18.4,28.8,N/A,,Overcast,290,2012-10-05 06:54:00
2:14 AM,39.7,28.9,65,30.16,10.0,WNW,16.1,26.5,N/A,,Overcast,290,2012-10-05 07:14:00
2:34 AM,38.8,28.2,66,30.15,10.0,West,15.0,21.9,N/A,,Scattered Clouds,280,2012-10-05 07:34:00
3:14 AM,37.4,27.5,67,30.14,10.0,West,15.0,20.7,N/A,,Clear,280,2012-10-05 08:14:00
3:34 AM,36.5,27.5,70,30.14,10.0,West,12.7,17.3,N/A,,Clear,280,2012-10-05 08:34:00
3:54 AM,35.8,27.9,73,30.14,10.0,West,6.9,-,N/A,,Clear,280,2012-10-05 08:54:00
4:13 AM,35.4,28.0,75,30.15,10.0,West,9.2,-,N/A,,Clear,280,2012-10-05 09:13:00
4:34 AM,35.6,28.0,74,30.14,10.0,West,9.2,-,N/A,,Clear,270,2012-10-05 09:34:00
4:54 AM,35.4,28.2,75,30.14,10.0,West,10.4,-,N/A,,Clear,260,2012-10-05 09:54:00
5:14 AM,34.7,28.4,78,30.14,10.0,West,8.1,16.1,N/A,,Clear,270,2012-10-05 10:14:00
5:34 AM,34.0,28.4,80,30.14,10.0,West,8.1,-,N/A,,Clear,260,2012-10-05 10:34:00
5:54 AM,33.8,28.2,80,30.14,10.0,West,10.4,17.3,N/A,,Clear,270,2012-10-05 10:54:00
6:14 AM,33.3,28.2,82,30.13,10.0,West,13.8,20.7,N/A,,Clear,280,2012-10-05 11:14:00
6:34 AM,32.9,27.7,81,30.13,10.0,West,15.0,20.7,N/A,,Clear,280,2012-10-05 11:34:00
6:54 AM,32.4,27.5,82,30.13,10.0,West,10.4,21.9,N/A,,Clear,270,2012-10-05 11:54:00
7:14 AM,32.2,27.5,83,30.13,10.0,West,10.4,18.4,N/A,,Clear,270,2012-10-05 12:14:00
7:34 AM,32.0,27.5,83,30.14,10.0,West,10.4,20.7,N/A,,Clear,280,2012-10-05 12:34:00
7:54 AM,32.0,27.5,83,30.14,10.0,West,9.2,18.4,N/A,,Clear,280,2012-10-05 12:54:00
8:14 AM,32.5,27.5,82,30.14,10.0,West,12.7,20.7,N/A,,Clear,270,2012-10-05 13:14:00
8:34 AM,33.1,27.7,81,30.14,10.0,West,13.8,19.6,N/A,,Clear,280,2012-10-05 13:34:00
8:54 AM,33.8,27.7,78,30.15,10.0,West,12.7,20.7,N/A,,Clear,270,2012-10-05 13:54:00
9:34 AM,34.9,27.7,75,30.16,10.0,West,15.0,21.9,N/A,,Scattered Clouds,280,2012-10-05 14:34:00
10:14 AM,36.5,28.0,71,30.16,10.0,West,13.8,20.7,N/A,,Scattered Clouds,270,2012-10-05 15:14:00
10:34 AM,37.8,28.2,68,30.16,10.0,West,15.0,24.2,N/A,,Scattered Clouds,270,2012-10-05 15:34:00
10:54 AM,38.7,28.2,66,30.15,10.0,WNW,17.3,23.0,N/A,,Mostly Cloudy,290,2012-10-05 15:54:00
11:14 AM,39.2,28.4,65,30.15,10.0,WNW,16.1,21.9,N/A,,Mostly Cloudy,300,2012-10-05 16:14:00
11:34 AM,39.2,28.0,64,30.14,10.0,WNW,17.3,25.3,N/A,,Mostly Cloudy,290,2012-10-05 16:34:00
12:14 PM,41.4,27.5,58,30.14,10.0,WNW,17.3,26.5,N/A,,Scattered Clouds,300,2012-10-05 17:14:00
12:34 PM,41.9,28.2,58,30.14,10.0,WNW,19.6,25.3,N/A,,Scattered Clouds,290,2012-10-05 17:34:00
12:54 PM,42.3,28.2,58,30.13,10.0,WNW,16.1,25.3,N/A,,Scattered Clouds,300,2012-10-05 17:54:00
1:14 PM,41.9,27.3,56,30.14,10.0,WNW,19.6,27.6,N/A,,Scattered Clouds,290,2012-10-05 18:14:00
1:34 PM,41.9,27.3,56,30.14,10.0,WNW,20.7,27.6,N/A,,Mostly Cloudy,290,2012-10-05 18:34:00
1:54 PM,43.0,27.7,55,30.13,10.0,WNW,13.8,25.3,N/A,,Overcast,290,2012-10-05 18:54:00
2:14 PM,42.3,27.0,55,30.13,10.0,WNW,23.0,29.9,N/A,,Overcast,300,2012-10-05 19:14:00
2:34 PM,43.3,27.3,53,30.13,10.0,West,23.0,27.6,N/A,,Overcast,280,2012-10-05 19:34:00
2:53 PM,41.9,27.0,55,30.14,10.0,WNW,19.6,28.8,N/A,,Overcast,290,2012-10-05 19:53:00
3:14 PM,41.7,26.6,55,30.14,10.0,WNW,19.6,32.2,N/A,,Overcast,290,2012-10-05 20:14:00
3:34 PM,41.4,26.8,56,30.13,10.0,WNW,19.6,27.6,N/A,,Overcast,290,2012-10-05 20:34:00
3:54 PM,41.0,26.8,57,30.14,10.0,WNW,21.9,26.5,N/A,,Overcast,290,2012-10-05 20:54:00
4:14 PM,40.6,27.3,59,30.14,10.0,WNW,19.6,29.9,N/A,,Overcast,290,2012-10-05 21:14:00
4:34 PM,40.5,27.3,59,30.14,10.0,WNW,19.6,27.6,N/A,,Overcast,290,2012-10-05 21:34:00
4:54 PM,40.3,26.8,59,30.14,10.0,WNW,21.9,25.3,N/A,,Overcast,290,2012-10-05 21:54:00
5:14 PM,40.1,26.8,59,30.14,10.0,WNW,13.8,25.3,N/A,,Overcast,290,2012-10-05 22:14:00
5:34 PM,40.1,27.0,59,30.14,10.0,West,17.3,26.5,N/A,,Overcast,280,2012-10-05 22:34:00
5:54 PM,40.1,26.6,59,30.14,10.0,WNW,19.6,24.2,N/A,,Overcast,300,2012-10-05 22:54:00
6:14 PM,40.1,27.1,60,30.14,10.0,WNW,19.6,24.2,N/A,,Overcast,290,2012-10-05 23:14:00
6:34 PM,39.6,27.5,62,30.14,10.0,WNW,13.8,19.6,N/A,,Overcast,290,2012-10-05 23:34:00
6:54 PM,39.6,27.5,62,30.14,10.0,WNW,12.7,24.2,N/A,,Overcast,290,2012-10-05 23:54:00
7:14 PM,39.6,27.5,62,30.15,10.0,WNW,16.1,23.0,N/A,,Overcast,290,2012-10-06 00:14:00
7:34 PM,39.4,27.9,63,30.15,10.0,WNW,12.7,20.7,N/A,,Overcast,290,2012-10-06 00:34:00
7:54 PM,39.4,28.0,64,30.16,10.0,WNW,13.8,21.9,N/A,,Overcast,290,2012-10-06 00:54:00
8:14 PM,39.2,28.0,64,30.16,10.0,NW,12.7,25.3,N/A,,Overcast,310,2012-10-06 01:14:00
8:34 PM,39.0,27.9,64,30.16,10.0,WNW,12.7,23.0,N/A,,Overcast,300,2012-10-06 01:34:00
8:54 PM,38.3,28.4,68,30.17,10.0,NW,12.7,20.7,N/A,,Mostly Cloudy,310,2012-10-06 01:54:00
9:14 PM,37.9,28.4,69,30.17,10.0,WNW,15.0,20.7,N/A,,Overcast,300,2012-10-06 02:14:00
9:34 PM,37.9,28.9,70,30.17,10.0,WNW,12.7,-,N/A,,Overcast,300,2012-10-06 02:34:00
9:54 PM,37.6,27.9,68,30.17,10.0,WNW,17.3,23.0,N/A,,Overcast,300,2012-10-06 02:54:00
10:14 PM,37.0,27.5,68,30.17,10.0,NW,13.8,21.9,N/A,,Mostly Cloudy,310,2012-10-06 03:14:00
10:34 PM,36.5,27.5,70,30.17,10.0,WNW,16.1,21.9,N/A,,Scattered Clouds,300,2012-10-06 03:34:00
10:54 PM,36.0,27.7,72,30.18,10.0,NW,9.2,17.3,N/A,,Scattered Clouds,310,2012-10-06 03:54:00
11:34 PM,36.1,27.3,70,30.17,10.0,NW,17.3,21.9,N/A,,Overcast,310,2012-10-06 04:34:00
11:54 PM,35.8,27.5,72,30.17,10.0,NW,15.0,21.9,N/A,,Overcast,310,2012-10-06 04:54:00